| time (UTC) | temp C | wind direction | speed KPH | gust KPH | rain 1hr cm | rain 24hr cm | rain mn cm | humidity % | barometer mb |
| 20260510004522 | 28 | 226 | 0.0 | 0.0 | 0.00 | 0.00 | 0.00 | 51 | 1006.2 |
| 20260510003018 | 28 | 226 | 0.0 | 0.0 | 0.00 | 0.00 | 0.00 | 51 | 1006.2 |
| 20260510001521 | 29 | 226 | 0.0 | 0.0 | 0.00 | 0.00 | 0.00 | 50 | 1006.3 |
| 20260510000010 | 29 | 226 | 0.0 | 0.0 | 0.00 | 0.00 | 0.00 | 47 | 1006.3 |
| 20260509234508 | 30 | 226 | 0.0 | 1.6 | 0.00 | 0.00 | 0.00 | 47 | 1006.3 |
| 20260509233000 | 30 | 226 | 0.0 | 0.0 | 0.00 | 0.00 | 0.00 | 47 | 1006.4 |
| 20260509231557 | 31 | 226 | 0.0 | 1.6 | 0.00 | 0.00 | 0.00 | 46 | 1006.3 |
| 20260509230054 | 31 | 226 | 0.0 | 0.0 | 0.00 | 0.00 | 0.00 | 46 | 1006.4 |
| 20260509224548 | 32 | 226 | 0.0 | 0.0 | 0.00 | 0.00 | 0.00 | 43 | 1006.3 |
| 20260509223052 | 32 | 226 | 0.0 | 0.0 | 0.00 | 0.00 | 0.00 | 42 | 1006.4 |
| 20260509221540 | 33 | 150 | 0.0 | 1.6 | 0.00 | 0.00 | 0.00 | 41 | 1006.3 |
| 20260509220043 | 35 | 72 | 0.0 | 0.0 | 0.00 | 0.00 | 0.00 | 42 | 1006.4 |
| 20260509214537 | 34 | 72 | 0.0 | 0.0 | 0.00 | 0.00 | 0.00 | 42 | 1006.5 |
| 20260509213027 | 34 | 11 | 0.0 | 1.6 | 0.00 | 0.00 | 0.00 | 41 | 1006.7 |
| 20260509211525 | 35 | 350 | 0.0 | 1.6 | 0.00 | 0.00 | 0.00 | 43 | 1006.8 |
| 20260509210018 | 35 | 224 | 0.0 | 0.0 | 0.00 | 0.00 | 0.00 | 39 | 1007.0 |
| 20260509204524 | 34 | 136 | 0.0 | 1.6 | 0.00 | 0.00 | 0.00 | 37 | 1007.3 |
| 20260509203009 | 33 | 23 | 0.0 | 1.6 | 0.00 | 0.00 | 0.00 | 37 | 1007.6 |
| 20260509201504 | 34 | 15 | 0.0 | 1.6 | 0.00 | 0.00 | 0.00 | 36 | 1007.7 |
| 20260509200100 | 33 | 5 | 0.0 | 0.0 | 0.00 | 0.00 | 0.00 | 44 | 1007.8 |
| 20260509194558 | 33 | 21 | 0.0 | 3.2 | 0.00 | 0.00 | 0.00 | 42 | 1008.1 |
| 20260509193051 | 33 | 18 | 0.0 | 1.6 | 0.00 | 0.00 | 0.00 | 41 | 1008.1 |
| 20260509191552 | 32 | 17 | 0.0 | 1.6 | 0.00 | 0.00 | 0.00 | 45 | 1008.2 |
| 20260509190044 | 32 | 67 | 0.0 | 1.6 | 0.00 | 0.00 | 0.00 | 47 | 1008.4 |
| 20260509184539 | 32 | 356 | 0.0 | 3.2 | 0.00 | 0.00 | 0.00 | 46 | 1008.6 |
| 20260509183033 | 32 | 193 | 0.0 | 3.2 | 0.00 | 0.00 | 0.00 | 44 | 1008.6 |
| 20260509181528 | 32 | 231 | 0.0 | 3.2 | 0.00 | 0.00 | 0.00 | 46 | 1008.8 |
| 20260509180025 | 31 | 356 | 0.0 | 1.6 | 0.00 | 0.00 | 0.00 | 47 | 1008.9 |
| 20260509174520 | 31 | 5 | 0.0 | 3.2 | 0.00 | 0.00 | 0.00 | 46 | 1009.0 |
| 20260509173015 | 31 | 356 | 0.0 | 1.6 | 0.00 | 0.00 | 0.00 | 47 | 1009.1 |
| 20260509171513 | 30 | 359 | 0.0 | 1.6 | 0.00 | 0.00 | 0.00 | 49 | 1009.3 |
| 20260509170007 | 30 | 352 | 0.0 | 1.6 | 0.00 | 0.00 | 0.00 | 50 | 1009.5 |
| 20260509164502 | 29 | 4 | 0.0 | 1.6 | 0.00 | 0.00 | 0.00 | 50 | 1009.6 |
| 20260509163105 | 28 | 283 | 0.0 | 1.6 | 0.00 | 0.00 | 0.00 | 52 | 1009.6 |
| 20260509161554 | 27 | 360 | 0.0 | 1.6 | 0.00 | 0.00 | 0.00 | 54 | 1009.7 |
| 20260509160049 | 27 | 349 | 0.0 | 1.6 | 0.00 | 0.00 | 0.00 | 55 | 1009.6 |
| 20260509154557 | 26 | 249 | 0.0 | 1.6 | 0.00 | 0.00 | 0.00 | 55 | 1009.4 |
| 20260509153040 | 26 | 231 | 0.0 | 1.6 | 0.00 | 0.00 | 0.00 | 53 | 1009.5 |
| 20260509151535 | 25 | 232 | 0.0 | 1.6 | 0.00 | 0.00 | 0.00 | 52 | 1009.6 |
| 20260509150032 | 25 | 345 | 0.0 | 1.6 | 0.00 | 0.00 | 0.00 | 51 | 1009.7 |
| 20260509144527 | 24 | 356 | 0.0 | 1.6 | 0.00 | 0.00 | 0.00 | 48 | 1009.7 |
| 20260509143023 | 23 | 226 | 0.0 | 1.6 | 0.00 | 0.00 | 0.00 | 34 | 1009.8 |
| 20260509141518 | 23 | 352 | 0.0 | 1.6 | 0.00 | 0.00 | 0.00 | 14 | 1009.8 |
| 20260509140014 | 22 | 326 | 0.0 | 1.6 | 0.00 | 0.00 | 0.00 | 1 | 1009.7 |
| 20260509134511 | 21 | 321 | 0.0 | 1.6 | 0.00 | 0.00 | 0.00 | 1 | 1009.6 |
| 20260509133010 | 21 | 231 | 0.0 | 1.6 | 0.00 | 0.00 | 0.00 | 1 | 1009.6 |
| 20260509131510 | 21 | 348 | 0.0 | 1.6 | 0.00 | 0.00 | 0.00 | 1 | 1009.5 |
| 20260509130003 | 21 | 344 | 0.0 | 1.6 | 0.00 | 0.00 | 0.00 | 1 | 1009.5 |
| 20260509124609 | 20 | 342 | 0.0 | 0.0 | 0.00 | 0.00 | 0.00 | 1 | 1009.6 |
| 20260509123054 | 20 | 345 | 0.0 | 0.0 | 0.00 | 0.00 | 0.00 | 1 | 1009.4 |
| 20260509121616 | 20 | 342 | 0.0 | 0.0 | 0.00 | 0.00 | 0.00 | 1 | 1009.4 |
| 20260509120049 | 20 | 342 | 0.0 | 0.0 | 0.00 | 0.00 | 0.00 | 1 | 1009.2 |
| 20260509114546 | 20 | 342 | 0.0 | 0.0 | 0.00 | 0.00 | 0.00 | 1 | 1009.2 |
| 20260509113044 | 20 | 342 | 0.0 | 0.0 | 0.00 | 0.00 | 0.00 | 1 | 1008.9 |
| 20260509111536 | 20 | 342 | 0.0 | 0.0 | 0.00 | 0.00 | 0.00 | 1 | 1008.6 |
| 20260509110032 | 21 | 343 | 0.0 | 0.0 | 0.00 | 0.00 | 0.00 | 1 | 1008.4 |
| 20260509104527 | 21 | 342 | 0.0 | 0.0 | 0.00 | 0.00 | 0.00 | 1 | 1008.3 |
| 20260509103022 | 21 | 342 | 0.0 | 0.0 | 0.00 | 0.00 | 0.00 | 1 | 1008.4 |
| 20260509101523 | 22 | 343 | 0.0 | 0.0 | 0.00 | 0.00 | 0.00 | 1 | 1008.2 |
| 20260509100014 | 22 | 342 | 0.0 | 1.6 | 0.00 | 0.00 | 0.00 | 1 | 1008.5 |
| 20260509094510 | 22 | 352 | 0.0 | 1.6 | 0.00 | 0.00 | 0.00 | 1 | 1007.4 |
| 20260509093009 | 21 | 333 | 0.0 | 3.2 | 0.00 | 0.00 | 0.00 | 1 | 1006.1 |
| 20260509091505 | 21 | 204 | 0.0 | 3.2 | 0.00 | 0.00 | 0.00 | 1 | 1005.7 |
| 20260509090002 | 21 | 160 | 0.0 | 3.2 | 0.00 | 0.00 | 0.00 | 1 | 1006.1 |
| 20260509084602 | 21 | 139 | 0.0 | 3.2 | 0.00 | 0.00 | 0.00 | 1 | 1006.3 |
| 20260509083058 | 21 | 136 | 0.0 | 3.2 | 0.00 | 0.00 | 0.00 | 1 | 1006.2 |
| 20260509081547 | 21 | 148 | 0.0 | 4.8 | 0.00 | 0.00 | 0.00 | 1 | 1006.9 |
| 20260509080047 | 21 | 140 | 0.0 | 1.6 | 0.00 | 0.00 | 0.00 | 1 | 1008.1 |
| 20260509074539 | 21 | 318 | 0.0 | 1.6 | 0.00 | 0.00 | 0.00 | 1 | 1008.9 |
| 20260509073038 | 21 | 260 | 0.0 | 1.6 | 0.00 | 0.00 | 0.00 | 1 | 1009.5 |
| 20260509071531 | 21 | 259 | 0.0 | 0.0 | 0.00 | 0.00 | 0.00 | 1 | 1010.0 |
| 20260509070028 | 21 | 259 | 0.0 | 3.2 | 0.00 | 0.00 | 0.00 | 1 | 1010.6 |
| 20260509064521 | 21 | 5 | 0.0 | 0.0 | 0.00 | 0.00 | 0.00 | 1 | 1010.3 |
| 20260509063017 | 21 | 5 | 0.0 | 0.0 | 0.00 | 0.00 | 0.00 | 1 | 1010.1 |
| 20260509061519 | 21 | 5 | 0.0 | 0.0 | 0.00 | 0.00 | 0.00 | 1 | 1010.2 |
| 20260509060012 | 21 | 5 | 0.0 | 0.0 | 0.00 | 0.00 | 0.00 | 1 | 1010.5 |
| 20260509054503 | 21 | 5 | 0.0 | 0.0 | 0.00 | 0.00 | 0.00 | 1 | 1010.5 |
| 20260509053135 | 21 | 6 | 0.0 | 1.6 | 0.00 | 0.00 | 0.00 | 1 | 1010.4 |
| 20260509051555 | 21 | 98 | 0.0 | 0.0 | 0.00 | 0.00 | 0.00 | 1 | 1009.6 |
| 20260509050050 | 21 | 98 | 0.0 | 0.0 | 0.00 | 0.00 | 0.00 | 1 | 1009.6 |
| 20260509044548 | 21 | 98 | 0.0 | 0.0 | 0.00 | 0.00 | 0.00 | 1 | 1009.4 |
| 20260509043102 | 22 | 98 | 0.0 | 0.0 | 0.00 | 0.00 | 0.00 | 1 | 1009.4 |
| 20260509041556 | 22 | 99 | 0.0 | 0.0 | 0.00 | 0.00 | 0.00 | 1 | 1009.6 |
| 20260509040050 | 22 | 97 | 0.0 | 0.0 | 0.00 | 0.00 | 0.00 | 1 | 1009.9 |
| 20260509034559 | 22 | 98 | 0.0 | 0.0 | 0.00 | 0.00 | 0.00 | 1 | 1009.7 |
| 20260509033059 | 22 | 98 | 0.0 | 0.0 | 0.00 | 0.00 | 0.00 | 1 | 1009.0 |
| 20260509031605 | 22 | 98 | 0.0 | 1.6 | 0.00 | 0.00 | 0.00 | 3 | 1008.7 |
| 20260509030036 | 22 | 96 | 0.0 | 0.0 | 0.00 | 0.00 | 0.00 | 7 | 1008.6 |
| 20260509024530 | 22 | 148 | 0.0 | 0.0 | 0.00 | 0.00 | 0.00 | 8 | 1008.3 |
| 20260509023026 | 22 | 148 | 0.0 | 1.6 | 0.00 | 0.00 | 0.00 | 11 | 1008.0 |
| 20260509021522 | 22 | 148 | 0.0 | 1.6 | 0.00 | 0.00 | 0.00 | 12 | 1007.9 |
| 20260509020022 | 22 | 127 | 0.0 | 0.0 | 0.00 | 0.00 | 0.00 | 12 | 1008.1 |
| 20260509014513 | 22 | 127 | 0.0 | 0.0 | 0.00 | 0.00 | 0.00 | 12 | 1008.1 |
| 20260509013008 | 22 | 127 | 0.0 | 0.0 | 0.00 | 0.00 | 0.00 | 13 | 1008.0 |
| 20260509011504 | 22 | 127 | 0.0 | 0.0 | 0.00 | 0.00 | 0.00 | 16 | 1008.0 |
| 20260509010100 | 22 | 127 | 0.0 | 0.0 | 0.00 | 0.00 | 0.00 | 18 | 1007.6 |